Location: Pilipovskiye Korichintsy
(49.1833°N, 27.4667°E)
Time: 22:39:57
(UTC+00:00)

Cosmos 841 Rocket - Pass Details

Date: 14 July 2020
Orbit: 747 x 772 km, 74.0° (Epoch: 10 August)

Event Time Altitude Azimuth Distance (km) Brightness Sun altitude
Rises 01:08:58 0° 338° (NNW) 3,209 7.1 -9.4°
Reaches altitude 10° 01:11:22 10° 343° (NNW) 2,282 6.4 -9.2°
Maximum altitude 01:16:29 60° 63° (ENE) 866 4.2 -8.6°
Drops below altitude 10° 01:21:35 10° 143° (SE) 2,281 5.9 -8.1°
Sets 01:23:59 0° 147° (SSE) 3,206 6.6 -7.8°
